Terminal Aerodrome Forecast
Issued by NWS

Home | Current Version | Previous Version | Text Only | Print | Product List | Glossary On
Versions: 1 2 3 4 5 6 7 8 9 10 11 12 13 14 15 16 17 18 19 20 21 22 23 24 25 26 27 28 29 30 31 32 33 34 35 36 37 38 39 40 41 42 43 44 45 46 47 48 49 50
000
FTUS41 KCTP 041125
TAFJST
TAF
KJST 041125Z 0412/0512 21005KT P6SM SKC
     FM041600 23010G18KT P6SM SCT070
     FM050100 24007KT P6SM VCSH BKN070
     FM051000 30007KT 3SM -SHRA BR BKN009 OVC015=

USA.gov is the U.S. government's official web portal to all federal, state and local government web resources and services.